CFG109 LIRF-EDDP

Flight info

Callsign CFG109
Flight time N/A
Altitude 18000
Route SOVAN L995 AMTEL/N0438F360 DCT LUMAV DCT SUMIR DCT BRENO DCT KONIN DCT ERNAS M726 LASGA T953 VOCIM/N0443F370 T954 GOXLI GOXLI1V
Aircraft A321/M-SDE3FGHIRWY/LB1

Departure

Time 2026-05-06 16:34
Airport Rome–Fiumicino Leonardo da Vinci International Airport (LIRF)

Arrival

Time N/A
Airport Leipzig/Halle Airport (EDDP)
Time Latitude Longitude Altitude Speed Heading
2026-05-06 16:01 41.79730 12.24841 14 ft 0 kts 250°
2026-05-06 16:22 41.79737 12.24867 15 ft 4 kts 250°
2026-05-06 16:22 41.79745 12.24894 15 ft 4 kts 254°
2026-05-06 16:22 41.79745 12.24926 15 ft 4 kts 304°
2026-05-06 16:23 41.79726 12.24947 15 ft 3 kts 340°
2026-05-06 16:23 41.79743 12.24939 16 ft 4 kts 340°
2026-05-06 16:23 41.79769 12.24926 14 ft 4 kts 340°
2026-05-06 16:23 41.79794 12.24914 14 ft 4 kts 340°
2026-05-06 16:24 41.79806 12.24907 14 ft 0 kts 340°
2026-05-06 16:26 41.79832 12.24895 14 ft 8 kts 340°
2026-05-06 16:26 41.79885 12.24869 14 ft 8 kts 340°
2026-05-06 16:26 41.79933 12.24845 14 ft 7 kts 340°
2026-05-06 16:27 41.79978 12.24823 14 ft 7 kts 340°
2026-05-06 16:27 41.80025 12.24800 14 ft 7 kts 340°
2026-05-06 16:27 41.80063 12.24787 16 ft 4 kts 350°
2026-05-06 16:27 41.80087 12.24781 14 ft 4 kts 349°
2026-05-06 16:28 41.80134 12.24774 14 ft 7 kts 359°
2026-05-06 16:28 41.80186 12.24808 14 ft 14 kts 51°
2026-05-06 16:28 41.80207 12.24956 14 ft 16 kts 91°
2026-05-06 16:28 41.80216 12.25103 15 ft 16 kts 72°
2026-05-06 16:29 41.80252 12.25239 14 ft 15 kts 69°
2026-05-06 16:29 41.80288 12.25364 15 ft 14 kts 69°
2026-05-06 16:29 41.80318 12.25477 18 ft 14 kts 70°
2026-05-06 16:29 41.80368 12.25658 16 ft 27 kts 69°
2026-05-06 16:30 41.80428 12.25878 15 ft 19 kts 71°
2026-05-06 16:30 41.80458 12.25989 15 ft 19 kts 68°
2026-05-06 16:30 41.80517 12.26196 16 ft 17 kts 70°
2026-05-06 16:30 41.80556 12.26340 16 ft 16 kts 68°
2026-05-06 16:31 41.80595 12.26478 17 ft 16 kts 70°
2026-05-06 16:31 41.80631 12.26615 16 ft 15 kts 70°
2026-05-06 16:31 41.80667 12.26746 16 ft 15 kts 69°
2026-05-06 16:31 41.80704 12.26876 14 ft 15 kts 70°
2026-05-06 16:32 41.80751 12.27016 13 ft 15 kts 45°
2026-05-06 16:32 41.80873 12.27009 13 ft 24 kts 340°
2026-05-06 16:32 41.80946 12.26897 15 ft 17 kts 257°
2026-05-06 16:32 41.80875 12.26634 17 ft 60 kts 249°
2026-05-06 16:33 41.80653 12.25834 19 ft 121 kts 249°
2026-05-06 16:33 41.80284 12.24563 23 ft 165 kts 242°
2026-05-06 16:33 41.79874 12.23082 477 ft 170 kts 246°
2026-05-06 16:34 41.79176 12.20059 1393 ft 187 kts 264°
2026-05-06 16:34 41.79587 12.18301 1596 ft 211 kts 301°
2026-05-06 16:34 41.80516 12.16735 2069 ft 217 kts 305°
2026-05-06 16:34 41.81463 12.15152 2754 ft 218 kts 305°
2026-05-06 16:35 41.82410 12.13564 3470 ft 218 kts 304°
2026-05-06 16:35 41.83360 12.11967 4182 ft 220 kts 306°
2026-05-06 16:35 41.84500 12.10560 4859 ft 227 kts 326°
2026-05-06 16:35 41.86014 12.09693 5228 ft 250 kts 343°
2026-05-06 16:36 41.87779 12.09053 5548 ft 274 kts 343°
2026-05-06 16:36 41.89667 12.08359 6141 ft 286 kts 342°
2026-05-06 16:36 41.91598 12.07646 6895 ft 289 kts 342°
2026-05-06 16:36 41.93547 12.06922 7680 ft 292 kts 342°
2026-05-06 16:37 41.95522 12.06221 8454 ft 296 kts 347°
2026-05-06 16:37 41.97589 12.05931 9236 ft 301 kts 354°
2026-05-06 16:37 41.99692 12.05739 10021 ft 304 kts 353°
2026-05-06 16:37 42.01854 12.05532 10379 ft 323 kts 353°
2026-05-06 16:38 42.04175 12.05296 10574 ft 345 kts 353°
2026-05-06 16:38 42.06602 12.05052 11134 ft 353 kts 353°
2026-05-06 16:38 42.09078 12.04813 11813 ft 358 kts 353°
2026-05-06 16:38 42.11577 12.04574 12507 ft 362 kts 353°
2026-05-06 16:39 42.14103 12.04333 13208 ft 366 kts 353°
2026-05-06 16:39 42.16659 12.04087 13894 ft 370 kts 354°
2026-05-06 16:39 42.19236 12.03726 14493 ft 373 kts 348°
2026-05-06 16:39 42.21812 12.03140 15095 ft 378 kts 348°
2026-05-06 16:40 42.24419 12.02547 15697 ft 382 kts 348°
2026-05-06 16:40 42.27059 12.01949 16292 ft 387 kts 348°
2026-05-06 16:40 42.29729 12.01344 16862 ft 391 kts 348°
2026-05-06 16:40 42.32428 12.00735 17432 ft 396 kts 347°
2026-05-06 16:41 42.35158 12.00118 17990 ft 400 kts 347°
2026-05-06 16:41 42.37919 11.99494 18524 ft 405 kts 347°
2026-05-06 16:41 42.40708 11.98866 19047 ft 407 kts 347°
2026-05-06 16:41 42.43512 11.98235 19585 ft 409 kts 347°
2026-05-06 16:42 42.46334 11.97597 20111 ft 412 kts 346°
2026-05-06 16:42 42.49170 11.96953 20634 ft 414 kts 346°
2026-05-06 16:42 42.52053 11.96301 21147 ft 416 kts 346°
2026-05-06 16:42 42.54926 11.95656 21670 ft 418 kts 346°
2026-05-06 16:43 42.57788 11.95010 22172 ft 421 kts 345°
2026-05-06 16:43 42.60687 11.94352 22694 ft 423 kts 345°
2026-05-06 16:43 42.63594 11.93690 23186 ft 425 kts 345°
2026-05-06 16:43 42.66519 11.93026 23645 ft 427 kts 344°
2026-05-06 16:44 42.69461 11.92358 23898 ft 429 kts 344°
2026-05-06 16:44 42.72399 11.91690 23959 ft 424 kts 344°
2026-05-06 16:44 42.75284 11.91037 23963 ft 419 kts 344°
2026-05-06 16:44 42.78161 11.90381 23963 ft 418 kts 344°
2026-05-06 16:45 42.81024 11.89721 23969 ft 417 kts 342°
2026-05-06 16:45 42.83793 11.88684 23957 ft 410 kts 333°
2026-05-06 16:45 42.86365 11.87074 23955 ft 404 kts 324°
2026-05-06 16:45 42.88836 11.85247 23954 ft 405 kts 324°
2026-05-06 16:46 42.91318 11.83424 23953 ft 405 kts 325°
2026-05-06 16:46 42.93797 11.81614 23952 ft 405 kts 325°
2026-05-06 16:46 42.96282 11.79804 23952 ft 405 kts 325°
2026-05-06 16:46 42.98767 11.77988 23947 ft 405 kts 325°
2026-05-06 16:47 43.00445 11.76759 23950 ft 405 kts 325°
2026-05-06 16:47 43.02934 11.74933 23961 ft 405 kts 324°
2026-05-06 16:47 43.05418 11.73110 23944 ft 406 kts 324°
2026-05-06 16:47 43.07907 11.71281 23934 ft 407 kts 324°
2026-05-06 16:48 43.10406 11.69441 23933 ft 408 kts 324°
2026-05-06 16:48 43.12903 11.67605 23941 ft 408 kts 324°
2026-05-06 16:48 43.15406 11.65759 23933 ft 409 kts 324°
2026-05-06 16:48 43.17910 11.63909 23920 ft 410 kts 324°
2026-05-06 16:49 43.20519 11.62253 23918 ft 418 kts 333°
2026-05-06 16:49 43.23357 11.61206 23917 ft 427 kts 344°
2026-05-06 16:49 43.26347 11.60861 23932 ft 435 kts 354°
2026-05-06 16:49 43.29385 11.60890 23930 ft 436 kts 354°
2026-05-06 16:50 43.32426 11.60914 23946 ft 443 kts 354°
2026-05-06 16:50 43.35555 11.60924 24066 ft 454 kts 354°
2026-05-06 16:50 43.38747 11.60932 24184 ft 464 kts 354°
2026-05-06 16:50 43.42015 11.60943 24303 ft 474 kts 355°
2026-05-06 16:51 43.45342 11.60955 24435 ft 483 kts 354°
2026-05-06 16:51 43.48734 11.60967 24557 ft 491 kts 354°
2026-05-06 16:51 43.52184 11.60979 24706 ft 498 kts 355°
2026-05-06 16:51 43.55660 11.60997 25046 ft 500 kts 355°
2026-05-06 16:52 43.59129 11.61020 25482 ft 499 kts 355°
2026-05-06 16:52 43.62603 11.61045 25953 ft 498 kts 355°
2026-05-06 16:52 43.66072 11.61070 26426 ft 497 kts 355°
2026-05-06 16:52 43.69512 11.61094 27007 ft 494 kts 355°
2026-05-06 16:53 43.72942 11.61115 27487 ft 491 kts 354°
2026-05-06 16:53 43.76354 11.61131 27913 ft 490 kts 354°
2026-05-06 16:53 43.79760 11.61145 28324 ft 489 kts 354°
2026-05-06 16:53 43.83159 11.61155 28789 ft 488 kts 354°
2026-05-06 16:54 43.86546 11.61165 29250 ft 487 kts 355°
2026-05-06 16:54 43.89931 11.61182 29718 ft 486 kts 355°
2026-05-06 16:54 43.93308 11.61202 30150 ft 484 kts 355°
2026-05-06 16:54 43.96671 11.61223 30518 ft 484 kts 355°
2026-05-06 16:55 44.00039 11.61242 30875 ft 483 kts 355°
2026-05-06 16:55 44.03404 11.61258 31257 ft 483 kts 354°
2026-05-06 16:55 44.06777 11.61273 31443 ft 488 kts 354°
2026-05-06 16:55 44.10181 11.61286 31729 ft 489 kts 354°
2026-05-06 16:56 44.13583 11.61299 32091 ft 489 kts 354°
2026-05-06 16:56 44.16983 11.61311 32446 ft 488 kts 354°
2026-05-06 16:56 44.20377 11.61326 32819 ft 488 kts 354°
2026-05-06 16:56 44.23774 11.61344 33185 ft 488 kts 354°
2026-05-06 16:57 44.27166 11.61363 33545 ft 487 kts 354°
2026-05-06 16:57 44.30561 11.61382 33899 ft 487 kts 354°
2026-05-06 16:57 44.33946 11.61402 34215 ft 486 kts 354°
2026-05-06 16:57 44.37325 11.61426 34535 ft 485 kts 354°
2026-05-06 16:58 44.40698 11.61449 34878 ft 484 kts 354°
2026-05-06 16:58 44.44067 11.61467 35182 ft 484 kts 354°
2026-05-06 16:58 44.47431 11.61480 35484 ft 483 kts 354°
2026-05-06 16:58 44.50791 11.61493 35785 ft 482 kts 354°
2026-05-06 16:59 44.54141 11.61508 35871 ft 482 kts 354°
2026-05-06 16:59 44.60839 11.61542 35865 ft 480 kts 354°
2026-05-06 17:00 44.67497 11.61578 35865 ft 478 kts 354°
2026-05-06 17:00 44.74145 11.61608 35865 ft 478 kts 354°
2026-05-06 17:01 44.80788 11.61614 35879 ft 476 kts 351°
2026-05-06 17:01 44.87318 11.60643 35868 ft 471 kts 346°
2026-05-06 17:02 44.93848 11.59493 35852 ft 471 kts 346°
2026-05-06 17:02 45.00321 11.58352 35868 ft 471 kts 346°
2026-05-06 17:03 45.06832 11.57218 35857 ft 472 kts 346°
2026-05-06 17:03 45.13353 11.56082 35884 ft 473 kts 346°
2026-05-06 17:04 45.19891 11.54940 35877 ft 474 kts 346°
2026-05-06 17:04 45.26448 11.53784 35859 ft 475 kts 346°
2026-05-06 17:05 45.33016 11.52629 35859 ft 476 kts 346°
2026-05-06 17:05 45.39590 11.51477 35869 ft 477 kts 346°
2026-05-06 17:06 45.46201 11.50305 35873 ft 477 kts 347°
2026-05-06 17:06 45.52794 11.49129 35880 ft 477 kts 346°
2026-05-06 17:07 45.59381 11.47959 35908 ft 477 kts 347°
2026-05-06 17:07 45.65977 11.46782 35898 ft 477 kts 347°
2026-05-06 17:08 45.72474 11.45617 35900 ft 477 kts 347°
2026-05-06 17:08 45.79062 11.44439 35917 ft 473 kts 349°
2026-05-06 17:09 45.85609 11.43264 35905 ft 475 kts 347°
2026-05-06 17:09 45.92171 11.42086 35901 ft 476 kts 347°
2026-05-06 17:10 45.98743 11.40903 35904 ft 476 kts 347°
2026-05-06 17:10 46.05307 11.39720 35898 ft 475 kts 347°
2026-05-06 17:11 46.11873 11.38532 35896 ft 475 kts 347°
2026-05-06 17:11 46.18433 11.37341 35886 ft 475 kts 347°
2026-05-06 17:12 46.25000 11.36160 35885 ft 477 kts 349°
2026-05-06 17:12 46.31680 11.36089 35883 ft 481 kts 355°
2026-05-06 17:13 46.38387 11.36264 35884 ft 482 kts 356°
2026-05-06 17:13 46.41731 11.36352 35725 ft 481 kts 357°
2026-05-06 17:13 46.45038 11.36437 35878 ft 470 kts 358°
2026-05-06 17:14 46.51513 11.36584 35865 ft 463 kts 357°
2026-05-06 17:14 46.57952 11.36715 35867 ft 463 kts 357°
2026-05-06 17:15 46.64406 11.36858 35872 ft 464 kts 358°
2026-05-06 17:15 46.70868 11.37013 35865 ft 464 kts 358°
2026-05-06 17:16 46.77318 11.37167 35864 ft 464 kts 358°
2026-05-06 17:16 46.83772 11.37323 35862 ft 464 kts 358°
2026-05-06 17:17 46.90230 11.37486 35848 ft 464 kts 358°
2026-05-06 17:17 46.96684 11.37636 35846 ft 464 kts 358°
2026-05-06 17:18 47.03125 11.37701 35834 ft 463 kts 356°
2026-05-06 17:18 47.09566 11.37601 35811 ft 463 kts 356°
2026-05-06 17:19 47.16012 11.37479 35774 ft 463 kts 356°
2026-05-06 17:19 47.22463 11.37398 35782 ft 464 kts 356°
2026-05-06 17:20 47.28916 11.37349 35778 ft 464 kts 356°
2026-05-06 17:20 47.35375 11.37300 35775 ft 464 kts 356°
2026-05-06 17:21 47.41839 11.37240 35793 ft 465 kts 356°
2026-05-06 17:21 47.48310 11.37180 35802 ft 465 kts 356°
2026-05-06 17:22 47.54777 11.37113 35823 ft 464 kts 356°
2026-05-06 17:22 47.61236 11.37042 35864 ft 464 kts 356°
2026-05-06 17:23 47.66618 11.36991 35865 ft 465 kts 356°
2026-05-06 17:23 47.73088 11.36927 35849 ft 465 kts 356°
2026-05-06 17:24 47.79563 11.36860 35860 ft 466 kts 356°
2026-05-06 17:24 47.86052 11.36733 35849 ft 465 kts 352°
2026-05-06 17:25 47.92474 11.35804 35855 ft 464 kts 351°
2026-05-06 17:25 47.98900 11.34837 35850 ft 464 kts 351°
2026-05-06 17:26 48.05323 11.33878 35852 ft 464 kts 351°
2026-05-06 17:26 48.11752 11.32930 35851 ft 464 kts 351°
2026-05-06 17:27 48.18173 11.31973 35855 ft 464 kts 351°
2026-05-06 17:27 48.24591 11.31013 35848 ft 464 kts 351°
2026-05-06 17:28 48.31011 11.30043 35842 ft 464 kts 351°
2026-05-06 17:28 48.37437 11.29077 35828 ft 464 kts 351°
2026-05-06 17:29 48.43852 11.28117 35821 ft 464 kts 351°
2026-05-06 17:29 48.50283 11.27141 35822 ft 464 kts 351°
2026-05-06 17:29 48.53495 11.26653 35950 ft 464 kts 351°
2026-05-06 17:30 48.56732 11.26164 35784 ft 470 kts 350°
2026-05-06 17:30 48.63241 11.25181 35745 ft 470 kts 350°
2026-05-06 17:31 48.69768 11.24190 35761 ft 472 kts 350°
2026-05-06 17:31 48.76318 11.23193 35777 ft 473 kts 350°
2026-05-06 17:32 48.82876 11.22186 35800 ft 474 kts 349°
2026-05-06 17:32 48.87084 11.21929 35798 ft 478 kts 356°
2026-05-06 17:34 48.91137 11.21794 35792 ft 477 kts 355°
2026-05-06 17:34 48.97785 11.21841 35787 ft 478 kts 357°
2026-05-06 17:35 49.04403 11.22023 35793 ft 478 kts 357°
2026-05-06 17:35 49.11088 11.22123 35789 ft 477 kts 356°
2026-05-06 17:36 49.21048 11.22136 35793 ft 477 kts 356°
2026-05-06 17:36 49.23234 11.22136 35777 ft 477 kts 356°